This is the latest recevied weather packets stored in our database for station/object 9M2ABD-1. If no packets are shown the sender has not sent any weather packets the latest 10 day(s).
| Time | Temp. | Humidity | Pressure | Rain* | Wind** | Luminosity | Snow |
|---|---|---|---|---|---|---|---|
| 1777565970 | 30° C | 76% | 1011.2 hPa | - | - | - | - |
| 1777564770 | 30.56° C | 76% | 1011.3 hPa | - | - | - | - |
| 1777563570 | 30.56° C | 75% | 1011.2 hPa | - | - | - | - |
| 1777562370 | 30.56° C | 76% | 1011.2 hPa | - | - | - | - |
| 1777561170 | 30.56° C | 76% | 1011.2 hPa | - | - | - | - |
| 1777559970 | 30.56° C | 76% | 1011.1 hPa | - | - | - | - |
| 1777552771 | 30.56° C | 75% | 1009.5 hPa | - | - | - | - |
| 1777551571 | 30.56° C | 75% | 1009 hPa | - | - | - | - |
| 1777550385 | 30.56° C | 75% | 1008.6 hPa | - | - | - | - |
| 1777547970 | 30.56° C | 73% | 1008.4 hPa | - | - | - | - |
| 1777546770 | 30.56° C | 76% | 1008.2 hPa | - | - | - | - |
| 1777545570 | 30° C | 76% | 1007.9 hPa | - | - | - | - |
| 1777544370 | 30.56° C | 75% | 1007.8 hPa | - | - | - | - |
| 1777543170 | 30.56° C | 73% | 1007.8 hPa | - | - | - | - |
| 1777541970 | 30.56° C | 73% | 1007.9 hPa | - | - | - | - |
| 1777540770 | 31.67° C | 71% | 1007.5 hPa | - | - | - | - |
| 1777539570 | 31.67° C | 71% | 1007.6 hPa | - | - | - | - |
| 1777538370 | 31.67° C | 73% | 1007.1 hPa | - | - | - | - |
| 1777537170 | 31.67° C | 70% | 1007.1 hPa | - | - | - | - |
| 1777535970 | 31.67° C | 71% | 1007.2 hPa | - | - | - | - |
| 1777534770 | 31.67° C | 74% | 1007.3 hPa | - | - | - | - |
| 1777533570 | 31.67° C | 72% | 1007.6 hPa | - | - | - | - |
| 1777532369 | 32.22° C | 65% | 1008 hPa | - | - | - | - |
| 1777531714 | 32.78° C | 67% | 1007.9 hPa | - | - | - | - |
| 1777531169 | 32.78° C | 67% | 1007.9 hPa | - | - | - | - |
* Rain since midnight (hover to see other rain measurements)
** Current wind speed in m/s (hover to see current wind gust speed)